Location: Arborea
(39.7744°N, 8.5819°E)
Time: 21:00:18
(UTC+00:00)

CZ-2D R/B - Pass Details

Date: 24 October 2021
Orbit: 519 x 537 km, 97.4° (Epoch: 06 December)

Event Time Altitude Azimuth Distance (km) Brightness Sun altitude
Rises 17:13:49 0° 164° (SSE) 2,658 6.7 -8.4°
Reaches altitude 10° 17:15:54 10° 163° (SSE) 1,776 5.8 -8.8°
Maximum altitude 17:19:44 79° 78° (ENE) 550 3.2 -9.5°
Drops below altitude 10° 17:23:37 10° 351° (N) 1,799 6.0 -10.3°
Sets 17:25:45 0° 350° (N) 2,696 6.9 -10.7°
